Aviation Digital Data Service (ADDS)

Output produced by METARs form (1300 UTC 10 July 2020)
found at http://www.aviationweather.gov/metar/data/
 
Forecast for: WSSL (SINGAPORE/SELETA, SG)
Text: TAF WSSL 101100Z 1012/1118 13007KT 9999 FEW015 SCT020
Forecast period: 1200 UTC 10 July 2020 to 1800 UTC 11 July 2020
Forecast type: FROM: standard forecast or significant change
Winds: from the SE (130 degrees) at 8 MPH (7 knots; 3.6 m/s)
Visibility: 6 or more miles 10+ km)
Ceiling: at least 12,000 feet AGL
Clouds: few clouds at 1500 feet AGL
scattered clouds at 2000 feet AGL
Weather: no significant weather forecast for this period
Text: TEMPO 1105/1108 3000 TSRA FEW012CB BKN015
Forecast period: 0500 to 0800 UTC 11 July 2020
Forecast type: TEMPORARY: The following changes expected for less than half the time period
Visibility: 1.86 miles (2.99 km)
Ceiling: 1500 feet AGL
Clouds: few clouds at 1200 feet AGL
broken clouds at 1500 feet AGL
Weather: TSRA  (rain associated with thunderstorm(s))